Time,TemperatureF,DewpointF,PressureIn,WindDirection,WindDirectionDegrees,WindSpeedMPH,WindSpeedGustMPH,Humidity,HourlyPrecipIn,Conditions,Clouds,dailyrainin,SoftwareType,DateUTC
2013-06-14 15:33:00,72.7,72.7,29.94,North,0,0.0,0.0,100,0.00,,---,0.00,VWS V14.01,2013-06-14 19:33:00,
2013-06-14 15:35:00,75.2,49.9,29.21,ESE,112,1.1,1.1,41,3.05,,---,3.05,VWS V14.01,2013-06-14 19:35:00,
2013-06-14 15:36:00,75.2,50.6,29.21,SSE,158,1.1,1.1,42,3.05,,---,3.05,VWS V14.01,2013-06-14 19:36:00,
2013-06-14 15:37:00,75.2,50.6,29.21,SE,135,0.7,1.1,42,3.05,,---,3.05,VWS V14.01,2013-06-14 19:37:00,
2013-06-14 15:38:00,75.1,51.7,29.20,North,0,0.9,0.9,44,3.05,,---,3.05,VWS V14.01,2013-06-14 19:38:00,
2013-06-14 15:39:00,75.1,51.7,29.20,NNE,22,0.2,0.9,44,3.05,,---,3.05,VWS V14.01,2013-06-14 19:39:00,
2013-06-14 15:40:00,75.1,51.7,29.21,NNE,22,0.0,0.4,44,3.05,,---,3.05,VWS V14.01,2013-06-14 19:40:00,
2013-06-14 15:41:00,74.9,52.2,29.21,ENE,68,0.2,0.2,45,3.05,,---,3.05,VWS V14.01,2013-06-14 19:41:00,
2013-06-14 15:42:00,74.9,52.8,29.21,ENE,68,0.0,0.2,46,3.05,,---,3.05,VWS V14.01,2013-06-14 19:42:00,
2013-06-14 15:43:00,74.9,52.8,29.21,East,90,0.4,0.4,46,3.05,,---,3.05,VWS V14.01,2013-06-14 19:43:00,
2013-06-14 15:44:00,74.7,52.6,29.21,East,90,0.0,0.4,46,3.05,,---,3.05,VWS V14.01,2013-06-14 19:44:00,
2013-06-14 15:45:00,74.5,53.0,29.21,East,90,0.0,0.0,47,3.05,,---,3.05,VWS V14.01,2013-06-14 19:45:00,
2013-06-14 15:46:00,74.7,53.2,29.20,East,90,0.0,0.0,47,3.05,,---,3.05,VWS V14.01,2013-06-14 19:46:00,
2013-06-14 15:47:00,74.5,53.0,29.20,SSW,202,0.7,0.7,47,3.05,,---,3.05,VWS V14.01,2013-06-14 19:47:00,
2013-06-14 15:48:00,74.3,52.8,29.20,SSW,202,0.0,0.0,47,3.05,,---,3.05,VWS V14.01,2013-06-14 19:48:00,
2013-06-14 15:49:00,74.3,53.4,29.20,SSW,202,0.0,0.0,48,3.05,,---,3.05,VWS V14.01,2013-06-14 19:49:00,
2013-06-14 15:50:00,74.3,53.4,29.20,SSW,202,0.0,0.0,48,3.05,,---,3.05,VWS V14.01,2013-06-14 19:50:00,
2013-06-14 15:51:00,74.2,53.3,29.20,SSW,202,0.0,0.0,48,3.05,,---,3.05,VWS V14.01,2013-06-14 19:51:00,
2013-06-14 15:52:00,74.2,53.3,29.20,North,0,1.1,1.1,48,3.05,,---,3.05,VWS V14.01,2013-06-14 19:52:00,
2013-06-14 15:53:00,74.0,53.1,29.20,North,0,0.0,0.0,48,3.05,,---,3.05,VWS V14.01,2013-06-14 19:53:00,
2013-06-14 15:54:00,74.0,53.1,29.20,North,0,0.0,0.0,48,3.05,,---,3.05,VWS V14.01,2013-06-14 19:54:00,
2013-06-14 15:55:00,73.8,52.3,29.20,North,0,0.4,0.4,47,3.05,,---,3.05,VWS V14.01,2013-06-14 19:55:00,
2013-06-14 15:56:00,74.0,53.1,29.20,North,0,0.0,0.4,48,3.05,,---,3.05,VWS V14.01,2013-06-14 19:56:00,
2013-06-14 15:57:00,73.8,52.9,29.20,North,0,0.0,0.0,48,3.05,,---,3.05,VWS V14.01,2013-06-14 19:57:00,
2013-06-14 15:58:00,74.0,53.1,29.20,WNW,292,0.0,0.2,48,3.05,,---,3.05,VWS V14.01,2013-06-14 19:58:00,
2013-06-14 15:59:00,74.0,53.1,29.20,WNW,292,0.0,0.2,48,3.05,,---,3.05,VWS V14.01,2013-06-14 19:59:00,
2013-06-14 16:00:00,74.0,53.1,29.20,SW,225,0.4,0.4,48,3.05,,---,3.05,VWS V14.01,2013-06-14 20:00:00,
2013-06-14 16:01:00,74.0,53.7,29.20,SW,225,0.9,0.9,49,3.05,,---,3.05,VWS V14.01,2013-06-14 20:01:00,
2013-06-14 16:02:00,74.2,53.8,29.20,NW,315,1.1,1.1,49,3.05,,---,3.05,VWS V14.01,2013-06-14 20:02:00,
2013-06-14 16:03:00,74.2,53.3,29.20,NNW,338,0.7,0.7,48,3.05,,---,3.05,VWS V14.01,2013-06-14 20:03:00,
2013-06-14 16:04:00,74.2,53.3,29.20,NNW,338,0.7,0.7,48,3.05,,---,3.05,VWS V14.01,2013-06-14 20:04:00,
2013-06-14 16:05:00,74.2,53.3,29.20,NNW,338,0.7,0.7,48,3.05,,---,3.05,VWS V14.01,2013-06-14 20:05:00,
2013-06-14 16:06:00,74.2,53.3,29.20,NNW,338,0.7,0.7,48,3.05,,---,3.05,VWS V14.01,2013-06-14 20:06:00,
2013-06-14 16:07:00,74.7,53.2,29.20,NNE,22,0.4,0.7,47,3.05,,---,3.05,VWS V14.01,2013-06-14 20:07:00,
2013-06-14 16:08:00,74.7,53.2,29.20,SE,135,0.0,0.9,47,3.05,,---,3.05,VWS V14.01,2013-06-14 20:08:00,
2013-06-14 16:09:00,74.7,53.2,29.20,SE,135,0.0,0.9,47,3.05,,---,3.05,VWS V14.01,2013-06-14 20:09:00,
2013-06-14 16:10:00,74.9,53.3,29.20,SE,135,0.0,0.0,47,3.05,,---,3.05,VWS V14.01,2013-06-14 20:10:00,
2013-06-14 16:11:00,74.9,53.9,29.20,SE,135,0.0,0.0,48,3.05,,---,3.05,VWS V14.01,2013-06-14 20:11:00,
2013-06-14 16:12:00,74.9,53.9,29.20,SE,135,0.0,0.0,48,3.05,,---,3.05,VWS V14.01,2013-06-14 20:12:00,
2013-06-14 16:13:00,74.9,53.9,29.20,SE,135,0.0,0.0,48,3.05,,---,3.05,VWS V14.01,2013-06-14 20:13:00,
2013-06-14 16:14:00,74.9,53.9,29.20,SE,135,0.0,0.0,48,3.05,,---,3.05,VWS V14.01,2013-06-14 20:14:00,
2013-06-14 16:15:00,74.9,53.9,29.20,SE,135,0.0,0.0,48,3.05,,---,3.05,VWS V14.01,2013-06-14 20:15:00,
2013-06-14 16:16:00,74.7,54.3,29.20,SE,135,0.0,0.0,49,3.05,,---,3.05,VWS V14.01,2013-06-14 20:16:00,
2013-06-14 16:17:00,74.7,54.8,29.20,SSE,158,0.2,0.2,50,3.05,,---,3.05,VWS V14.01,2013-06-14 20:17:00,
2013-06-14 16:18:00,74.7,54.8,29.20,SSE,158,0.0,0.0,50,3.05,,---,3.05,VWS V14.01,2013-06-14 20:18:00,
2013-06-14 16:19:00,74.5,54.7,29.20,SSE,158,0.0,0.0,50,3.05,,---,3.05,VWS V14.01,2013-06-14 20:19:00,
2013-06-14 16:20:00,74.5,54.7,29.20,SSE,158,0.0,0.0,50,3.05,,---,3.05,VWS V14.01,2013-06-14 20:20:00,
2013-06-14 16:21:00,74.5,54.7,29.20,North,0,0.0,0.0,50,3.05,,---,3.05,VWS V14.01,2013-06-14 20:21:00,
2013-06-14 16:22:00,74.5,54.7,29.20,North,0,0.0,0.0,50,3.05,,---,3.05,VWS V14.01,2013-06-14 20:22:00,
2013-06-14 16:23:00,74.3,54.5,29.20,North,0,0.0,0.0,50,3.05,,---,3.05,VWS V14.01,2013-06-14 20:23:00,
2013-06-14 16:24:00,74.3,54.5,29.20,North,0,0.0,0.0,50,3.05,,---,3.05,VWS V14.01,2013-06-14 20:24:00,
2013-06-14 16:25:00,74.3,54.5,29.20,North,0,0.0,0.0,50,3.05,,---,3.05,VWS V14.01,2013-06-14 20:25:00,
2013-06-14 16:26:00,74.2,54.4,29.20,North,0,0.0,0.0,50,3.05,,---,3.05,VWS V14.01,2013-06-14 20:26:00,
2013-06-14 16:27:00,74.2,54.4,29.20,North,0,0.2,0.2,50,3.05,,---,3.05,VWS V14.01,2013-06-14 20:27:00,
2013-06-14 16:28:00,73.8,54.0,29.20,West,270,0.0,0.2,50,3.05,,---,3.05,VWS V14.01,2013-06-14 20:28:00,
2013-06-14 16:29:00,73.8,54.0,29.20,West,270,0.0,0.2,50,3.05,,---,3.05,VWS V14.01,2013-06-14 20:29:00,
2013-06-14 16:30:00,73.8,54.0,29.20,SE,135,0.2,0.4,50,3.05,,---,3.05,VWS V14.01,2013-06-14 20:30:00,
2013-06-14 16:31:00,73.8,54.0,29.20,SE,135,0.2,0.2,50,3.05,,---,3.05,VWS V14.01,2013-06-14 20:31:00,
2013-06-14 16:32:00,73.8,54.0,29.20,SE,135,0.2,0.2,50,3.05,,---,3.05,VWS V14.01,2013-06-14 20:32:00,
2013-06-14 16:33:00,73.4,53.7,29.20,SW,225,0.7,0.7,50,3.05,,---,3.05,VWS V14.01,2013-06-14 20:33:00,
2013-06-14 16:34:00,73.4,53.7,29.20,SW,225,0.7,0.7,50,3.05,,---,3.05,VWS V14.01,2013-06-14 20:34:00,
2013-06-14 16:35:00,73.3,54.1,29.20,WSW,248,0.9,1.1,51,0.00,,---,3.05,VWS V14.01,2013-06-14 20:35:00,
2013-06-14 16:36:00,73.3,54.1,29.21,NW,315,0.7,0.9,51,0.00,,---,3.05,VWS V14.01,2013-06-14 20:36:00,
2013-06-14 16:37:00,73.1,52.8,29.20,ESE,112,1.1,1.1,49,0.00,,---,3.05,VWS V14.01,2013-06-14 20:37:00,
2013-06-14 16:38:00,73.1,52.8,29.20,NNE,22,1.3,1.3,49,0.00,,---,3.05,VWS V14.01,2013-06-14 20:38:00,
2013-06-14 16:39:00,73.1,52.8,29.20,NNE,22,1.3,1.3,49,0.00,,---,3.05,VWS V14.01,2013-06-14 20:39:00,
2013-06-14 16:40:00,73.1,52.8,29.20,SE,135,0.9,1.3,49,0.00,,---,3.05,VWS V14.01,2013-06-14 20:40:00,
2013-06-14 16:41:00,73.1,52.3,29.20,North,0,1.8,1.8,48,0.00,,---,3.05,VWS V14.01,2013-06-14 20:41:00,
2013-06-14 16:42:00,73.1,52.3,29.21,North,0,1.8,1.8,48,0.00,,---,3.05,VWS V14.01,2013-06-14 20:42:00,
2013-06-14 16:43:00,73.1,52.3,29.21,North,0,1.8,1.8,48,0.00,,---,3.05,VWS V14.01,2013-06-14 20:43:00,
2013-06-14 16:44:00,73.1,51.7,29.21,SSE,158,2.0,2.0,47,0.00,,---,3.05,VWS V14.01,2013-06-14 20:44:00,
2013-06-14 16:45:00,73.3,51.9,29.21,NNE,22,1.1,3.1,47,0.00,,---,3.05,VWS V14.01,2013-06-14 20:45:00,
2013-06-14 16:46:00,73.3,51.9,29.21,SE,135,2.0,2.0,47,0.00,,---,3.05,VWS V14.01,2013-06-14 20:46:00,
2013-06-14 16:47:00,73.4,52.0,29.21,North,0,2.5,2.5,47,0.00,,---,3.05,VWS V14.01,2013-06-14 20:47:00,
2013-06-14 16:48:00,73.4,50.8,29.21,ESE,112,0.7,1.8,45,0.00,,---,3.05,VWS V14.01,2013-06-14 20:48:00,
2013-06-14 16:49:00,73.6,51.6,29.21,NNE,22,1.3,1.8,46,0.00,,---,3.05,VWS V14.01,2013-06-14 20:49:00,
2013-06-14 16:50:00,73.8,51.8,29.21,North,0,4.5,4.5,46,0.00,,---,3.05,VWS V14.01,2013-06-14 20:50:00,
2013-06-14 16:51:00,73.8,51.8,29.21,East,90,0.4,4.5,46,0.00,,---,3.05,VWS V14.01,2013-06-14 20:51:00,
2013-06-14 16:52:00,73.8,51.8,29.21,East,90,0.4,0.4,46,0.00,,---,3.05,VWS V14.01,2013-06-14 20:52:00,
2013-06-14 16:53:00,73.8,51.8,29.21,East,90,0.4,0.4,46,0.00,,---,3.05,VWS V14.01,2013-06-14 20:53:00,
2013-06-14 16:54:00,73.8,51.8,29.21,East,90,0.4,0.4,46,0.00,,---,3.05,VWS V14.01,2013-06-14 20:54:00,
2013-06-14 16:55:00,74.0,52.5,29.21,NNW,338,0.9,0.9,47,0.00,,---,3.05,VWS V14.01,2013-06-14 20:55:00,
2013-06-14 16:56:00,74.0,51.9,29.21,NNE,22,0.9,0.9,46,0.00,,---,3.05,VWS V14.01,2013-06-14 20:56:00,
2013-06-14 16:57:00,74.0,52.5,29.21,NNW,338,1.1,1.1,47,0.00,,---,3.05,VWS V14.01,2013-06-14 20:57:00,
2013-06-14 16:58:00,74.0,52.5,29.21,WSW,248,2.0,2.0,47,0.00,,---,3.05,VWS V14.01,2013-06-14 20:58:00,
2013-06-14 16:59:00,74.0,52.5,29.21,WSW,248,2.0,2.0,47,0.00,,---,3.05,VWS V14.01,2013-06-14 20:59:00,
2013-06-14 17:00:00,74.2,53.3,29.21,NNW,338,1.1,2.0,48,0.00,,---,3.05,VWS V14.01,2013-06-14 21:00:00,
2013-06-14 17:01:00,74.2,52.7,29.21,NNW,338,1.1,1.1,47,0.00,,---,3.05,VWS V14.01,2013-06-14 21:01:00,
2013-06-14 17:02:00,74.2,52.7,29.21,WNW,292,0.4,1.1,47,0.00,,---,3.05,VWS V14.01,2013-06-14 21:02:00,
2013-06-14 17:03:00,74.3,52.8,29.21,WNW,292,0.2,1.8,47,0.00,,---,3.05,VWS V14.01,2013-06-14 21:03:00,
2013-06-14 17:04:00,74.3,52.8,29.21,WNW,292,0.2,1.8,47,0.00,,---,3.05,VWS V14.01,2013-06-14 21:04:00,
2013-06-14 17:05:00,74.3,52.2,29.21,NNW,338,1.8,1.8,46,0.00,,---,3.05,VWS V14.01,2013-06-14 21:05:00,
2013-06-14 17:06:00,74.3,52.2,29.21,NW,315,1.6,1.8,46,0.00,,---,3.05,VWS V14.01,2013-06-14 21:06:00,
2013-06-14 17:07:00,74.5,52.4,29.21,NNE,22,0.4,1.6,46,0.00,,---,3.05,VWS V14.01,2013-06-14 21:07:00,
2013-06-14 17:08:00,74.5,52.4,29.21,West,270,0.7,1.1,46,0.00,,---,3.05,VWS V14.01,2013-06-14 21:08:00,
2013-06-14 17:09:00,74.5,52.4,29.21,NNE,22,0.4,1.1,46,0.00,,---,3.05,VWS V14.01,2013-06-14 21:09:00,
2013-06-14 17:10:00,74.7,52.6,29.21,North,0,1.8,1.8,46,0.00,,---,3.05,VWS V14.01,2013-06-14 21:10:00,
2013-06-14 17:11:00,74.7,52.6,29.21,NNE,22,1.1,1.8,46,0.00,,---,3.05,VWS V14.01,2013-06-14 21:11:00,
2013-06-14 17:12:00,74.7,52.0,29.21,NW,315,0.7,1.1,45,0.00,,---,3.05,VWS V14.01,2013-06-14 21:12:00,
2013-06-14 17:13:00,74.7,52.0,29.21,NW,315,0.7,0.7,45,0.00,,---,3.05,VWS V14.01,2013-06-14 21:13:00,
2013-06-14 17:14:00,74.7,52.0,29.21,NW,315,0.7,0.7,45,0.00,,---,3.05,VWS V14.01,2013-06-14 21:14:00,
2013-06-14 17:15:00,74.7,52.0,29.21,NW,315,0.7,0.7,45,0.00,,---,3.05,VWS V14.01,2013-06-14 21:15:00,
2013-06-14 17:16:00,74.9,51.5,29.21,WNW,292,0.9,0.9,44,0.00,,---,3.05,VWS V14.01,2013-06-14 21:16:00,
2013-06-14 17:17:00,75.1,52.3,29.21,West,270,0.4,1.6,45,0.00,,---,3.05,VWS V14.01,2013-06-14 21:17:00,
2013-06-14 17:18:00,75.1,52.9,29.21,SW,225,1.1,1.8,46,0.00,,---,3.05,VWS V14.01,2013-06-14 21:18:00,
2013-06-14 17:19:00,75.1,52.9,29.21,SW,225,1.1,1.8,46,0.00,,---,3.05,VWS V14.01,2013-06-14 21:19:00,
2013-06-14 17:20:00,75.1,52.9,29.21,SW,225,1.1,1.1,46,0.00,,---,3.05,VWS V14.01,2013-06-14 21:20:00,
2013-06-14 17:21:00,75.1,52.9,29.21,SW,225,1.1,1.1,46,0.00,,---,3.05,VWS V14.01,2013-06-14 21:21:00,
2013-06-14 17:22:00,75.1,52.9,29.21,SW,225,1.1,1.1,46,0.00,,---,3.05,VWS V14.01,2013-06-14 21:22:00,
2013-06-14 17:23:00,75.2,53.0,29.21,North,0,0.7,0.7,46,0.00,,---,3.05,VWS V14.01,2013-06-14 21:23:00,
2013-06-14 17:24:00,75.2,53.0,29.21,North,0,0.7,0.7,46,0.00,,---,3.05,VWS V14.01,2013-06-14 21:24:00,
2013-06-14 17:25:00,75.2,53.0,29.21,North,0,0.7,0.7,46,0.00,,---,3.05,VWS V14.01,2013-06-14 21:25:00,
2013-06-14 17:26:00,75.2,53.0,29.21,North,0,0.7,0.7,46,0.00,,---,3.05,VWS V14.01,2013-06-14 21:26:00,
2013-06-14 17:27:00,75.2,53.0,29.21,West,270,0.2,0.7,46,0.00,,---,3.05,VWS V14.01,2013-06-14 21:27:00,
2013-06-14 17:28:00,75.2,53.6,29.21,WNW,292,0.0,0.0,47,0.00,,---,3.05,VWS V14.01,2013-06-14 21:28:00,
2013-06-14 17:29:00,75.2,53.0,29.21,NNE,22,1.6,1.6,46,0.00,,---,3.05,VWS V14.01,2013-06-14 21:29:00,
2013-06-14 17:30:00,75.1,53.5,29.21,NNE,22,1.1,1.6,47,0.00,,---,3.05,VWS V14.01,2013-06-14 21:30:00,
2013-06-14 17:31:00,75.1,53.5,29.21,NNE,22,0.2,1.1,47,0.00,,---,3.05,VWS V14.01,2013-06-14 21:31:00,
2013-06-14 17:32:00,75.1,53.5,29.21,NNE,22,0.0,0.2,47,0.00,,---,3.05,VWS V14.01,2013-06-14 21:32:00,
2013-06-14 17:33:00,74.9,53.9,29.21,East,90,0.0,0.0,48,0.00,,---,3.05,VWS V14.01,2013-06-14 21:33:00,
2013-06-14 17:34:00,74.9,53.9,29.21,East,90,0.0,0.0,48,0.00,,---,3.05,VWS V14.01,2013-06-14 21:34:00,
2013-06-14 17:35:00,75.1,54.1,29.21,North,0,1.8,1.8,48,0.00,,---,3.05,VWS V14.01,2013-06-14 21:35:00,
2013-06-14 17:36:00,74.9,53.9,29.21,WNW,292,0.4,1.8,48,0.00,,---,3.05,VWS V14.01,2013-06-14 21:36:00,
2013-06-14 17:37:00,75.1,53.5,29.21,NE,45,0.9,0.9,47,0.00,,---,3.05,VWS V14.01,2013-06-14 21:37:00,
2013-06-14 17:38:00,75.1,53.5,29.21,NE,45,0.2,0.2,47,0.00,,---,3.05,VWS V14.01,2013-06-14 21:38:00,
2013-06-14 17:39:00,75.1,53.5,29.21,NE,45,0.2,0.2,47,0.00,,---,3.05,VWS V14.01,2013-06-14 21:39:00,
2013-06-14 17:40:00,75.1,54.1,29.21,NE,45,0.0,0.4,48,0.00,,---,3.05,VWS V14.01,2013-06-14 21:40:00,
2013-06-14 17:41:00,75.1,54.1,29.21,NE,45,0.0,0.0,48,0.00,,---,3.05,VWS V14.01,2013-06-14 21:41:00,
2013-06-14 17:42:00,75.1,54.1,29.21,NE,45,0.0,0.0,48,0.00,,---,3.05,VWS V14.01,2013-06-14 21:42:00,
2013-06-14 17:43:00,75.2,54.8,29.21,North,0,0.0,0.0,49,0.00,,---,3.05,VWS V14.01,2013-06-14 21:43:00,
2013-06-14 17:44:00,75.2,54.8,29.21,North,0,0.0,0.0,49,0.00,,---,3.05,VWS V14.01,2013-06-14 21:44:00,
2013-06-14 17:45:00,75.2,54.8,29.21,NNE,22,1.3,1.3,49,0.00,,---,3.05,VWS V14.01,2013-06-14 21:45:00,
2013-06-14 17:46:00,75.2,54.8,29.21,NNE,22,1.3,1.3,49,0.00,,---,3.05,VWS V14.01,2013-06-14 21:46:00,
2013-06-14 17:47:00,75.2,54.8,29.21,NNE,22,1.3,1.3,49,0.00,,---,3.05,VWS V14.01,2013-06-14 21:47:00,
2013-06-14 17:48:00,75.4,54.9,29.21,NNW,338,0.4,1.3,49,0.00,,---,3.05,VWS V14.01,2013-06-14 21:48:00,
2013-06-14 17:49:00,75.4,54.9,29.21,NNW,338,0.4,1.3,49,0.00,,---,3.05,VWS V14.01,2013-06-14 21:49:00,
2013-06-14 17:50:00,75.6,54.5,29.21,North,0,0.0,0.9,48,0.00,,---,3.05,VWS V14.01,2013-06-14 21:50:00,
2013-06-14 17:51:00,75.6,55.1,29.21,SW,225,1.6,1.6,49,0.00,,---,3.05,VWS V14.01,2013-06-14 21:51:00,
2013-06-14 17:52:00,75.8,54.7,29.21,SE,135,0.7,1.6,48,0.00,,---,3.05,VWS V14.01,2013-06-14 21:52:00,
2013-06-14 17:53:00,75.8,53.6,29.21,North,0,0.4,0.4,46,0.00,,---,3.05,VWS V14.01,2013-06-14 21:53:00,
2013-06-14 17:54:00,76.0,53.8,29.21,North,0,0.4,0.4,46,0.00,,---,3.05,VWS V14.01,2013-06-14 21:54:00,
2013-06-14 17:55:00,76.0,53.2,29.21,SSW,202,0.0,1.6,45,0.00,,---,3.05,VWS V14.01,2013-06-14 21:55:00,
2013-06-14 17:56:00,76.0,53.8,29.21,West,270,0.4,0.4,46,0.00,,---,3.05,VWS V14.01,2013-06-14 21:56:00,
2013-06-14 17:57:00,76.1,53.8,29.20,NW,315,0.7,1.8,46,0.00,,---,3.05,VWS V14.01,2013-06-14 21:57:00,
2013-06-14 17:58:00,76.1,53.8,29.21,NW,315,0.7,0.7,46,0.00,,---,3.05,VWS V14.01,2013-06-14 21:58:00,
2013-06-14 17:59:00,76.1,53.8,29.21,NW,315,0.7,0.7,46,0.00,,---,3.05,VWS V14.01,2013-06-14 21:59:00,
2013-06-14 18:00:00,76.1,53.8,29.20,NW,315,0.7,0.7,46,0.00,,---,3.05,VWS V14.01,2013-06-14 22:00:00,
2013-06-14 18:01:00,76.3,54.6,29.20,NNW,338,1.1,1.1,47,0.00,,---,3.05,VWS V14.01,2013-06-14 22:01:00,
2013-06-14 18:02:00,76.5,54.2,29.21,North,0,0.4,1.1,46,0.00,,---,3.05,VWS V14.01,2013-06-14 22:02:00,
2013-06-14 18:03:00,76.5,53.6,29.21,NNW,338,0.0,0.4,45,0.00,,---,3.05,VWS V14.01,2013-06-14 22:03:00,
2013-06-14 18:04:00,76.3,53.4,29.21,NNW,338,0.0,0.4,45,0.00,,---,3.05,VWS V14.01,2013-06-14 22:04:00,
2013-06-14 18:05:00,76.3,53.4,29.21,NNE,22,0.2,0.2,45,0.00,,---,3.05,VWS V14.01,2013-06-14 22:05:00,
2013-06-14 18:06:00,76.3,54.0,29.21,NNE,22,0.2,0.2,46,0.00,,---,3.05,VWS V14.01,2013-06-14 22:06:00,
2013-06-14 18:07:00,76.3,53.4,29.21,NW,315,0.2,0.2,45,0.00,,---,3.05,VWS V14.01,2013-06-14 22:07:00,
2013-06-14 18:08:00,76.1,53.8,29.21,NW,315,0.2,0.2,46,0.00,,---,3.05,VWS V14.01,2013-06-14 22:08:00,
2013-06-14 18:09:00,76.1,53.8,29.21,NW,315,0.2,0.2,46,0.00,,---,3.05,VWS V14.01,2013-06-14 22:09:00,
2013-06-14 18:10:00,76.0,53.8,29.21,WSW,248,1.1,1.1,46,0.00,,---,3.05,VWS V14.01,2013-06-14 22:10:00,
2013-06-14 18:11:00,76.0,53.8,29.21,WSW,248,1.1,1.1,46,0.00,,---,3.05,VWS V14.01,2013-06-14 22:11:00,
2013-06-14 18:12:00,75.6,53.4,29.21,NNE,22,0.4,1.1,46,0.00,,---,3.05,VWS V14.01,2013-06-14 22:12:00,
2013-06-14 18:13:00,75.4,53.2,29.21,West,270,0.4,0.4,46,0.00,,---,3.05,VWS V14.01,2013-06-14 22:13:00,
2013-06-14 18:14:00,75.2,53.0,29.21,East,90,4.7,4.7,46,0.00,,---,3.05,VWS V14.01,2013-06-14 22:14:00,
2013-06-14 18:15:00,75.2,53.0,29.21,ENE,68,1.3,6.5,46,0.00,,---,3.05,VWS V14.01,2013-06-14 22:15:00,
2013-06-14 18:16:00,75.1,52.3,29.21,WNW,292,2.0,2.0,45,0.00,,---,3.05,VWS V14.01,2013-06-14 22:16:00,
2013-06-14 18:17:00,75.1,52.3,29.21,WSW,248,0.0,2.0,45,0.00,,---,3.05,VWS V14.01,2013-06-14 22:17:00,
2013-06-14 18:18:00,74.9,52.2,29.21,WNW,292,0.9,0.9,45,0.00,,---,3.05,VWS V14.01,2013-06-14 22:18:00,
2013-06-14 18:19:00,74.9,52.2,29.21,WNW,292,0.9,0.9,45,0.00,,---,3.05,VWS V14.01,2013-06-14 22:19:00,
2013-06-14 18:20:00,74.9,52.2,29.21,WNW,292,0.9,0.9,45,0.00,,---,3.05,VWS V14.01,2013-06-14 22:20:00,
2013-06-14 18:21:00,74.9,52.2,29.21,WNW,292,0.9,0.9,45,0.00,,---,3.05,VWS V14.01,2013-06-14 22:21:00,
2013-06-14 18:22:00,74.7,52.6,29.21,NNE,22,0.9,0.9,46,0.00,,---,3.05,VWS V14.01,2013-06-14 22:22:00,
2013-06-14 18:23:00,74.7,52.0,29.21,WSW,248,1.8,3.6,45,0.00,,---,3.05,VWS V14.01,2013-06-14 22:23:00,
2013-06-14 18:24:00,74.7,52.0,29.21,WSW,248,1.8,3.6,45,0.00,,---,3.05,VWS V14.01,2013-06-14 22:24:00,
2013-06-14 18:25:00,74.7,52.0,29.21,NNE,22,1.1,1.8,45,0.00,,---,3.05,VWS V14.01,2013-06-14 22:25:00,
2013-06-14 18:26:00,74.7,52.0,29.21,NNE,22,1.1,1.1,45,0.00,,---,3.05,VWS V14.01,2013-06-14 22:26:00,
2013-06-14 18:27:00,74.7,52.0,29.21,NNE,22,1.1,1.1,45,0.00,,---,3.05,VWS V14.01,2013-06-14 22:27:00,
2013-06-14 18:28:00,74.9,52.8,29.21,NNE,22,0.7,1.1,46,0.00,,---,3.05,VWS V14.01,2013-06-14 22:28:00,
2013-06-14 18:29:00,74.9,52.8,29.21,NNE,22,0.7,1.1,46,0.00,,---,3.05,VWS V14.01,2013-06-14 22:29:00,
2013-06-14 18:30:00,74.9,52.8,29.21,West,270,0.4,1.1,46,0.00,,---,3.05,VWS V14.01,2013-06-14 22:30:00,
2013-06-14 18:31:00,74.9,53.3,29.21,West,270,0.2,1.1,47,0.00,,---,3.05,VWS V14.01,2013-06-14 22:31:00,
2013-06-14 18:32:00,74.9,53.3,29.21,West,270,0.2,0.2,47,0.00,,---,3.05,VWS V14.01,2013-06-14 22:32:00,
2013-06-14 18:33:00,74.9,53.3,29.21,West,270,0.2,0.2,47,0.00,,---,3.05,VWS V14.01,2013-06-14 22:33:00,
2013-06-14 18:34:00,74.9,53.3,29.21,West,270,0.2,0.2,47,0.00,,---,3.05,VWS V14.01,2013-06-14 22:34:00,
2013-06-14 18:35:00,74.5,53.0,29.21,West,270,0.7,1.3,47,0.00,,---,3.05,VWS V14.01,2013-06-14 22:35:00,
2013-06-14 18:36:00,74.7,53.2,29.21,WSW,248,1.3,1.3,47,0.00,,---,3.05,VWS V14.01,2013-06-14 22:36:00,
2013-06-14 18:37:00,74.5,53.0,29.21,NNE,22,1.1,1.8,47,0.00,,---,3.05,VWS V14.01,2013-06-14 22:37:00,
2013-06-14 18:38:00,74.5,53.0,29.21,North,0,1.8,1.8,47,0.00,,---,3.05,VWS V14.01,2013-06-14 22:38:00,
2013-06-14 18:39:00,74.5,53.0,29.21,North,0,1.8,1.8,47,0.00,,---,3.05,VWS V14.01,2013-06-14 22:39:00,
2013-06-14 18:40:00,74.3,53.4,29.21,NE,45,0.4,1.8,48,0.00,,---,3.05,VWS V14.01,2013-06-14 22:40:00,
2013-06-14 18:41:00,74.3,53.4,29.21,NNW,338,0.2,0.4,48,0.00,,---,3.05,VWS V14.01,2013-06-14 22:41:00,
2013-06-14 18:42:00,74.3,53.4,29.21,NNW,338,0.0,0.2,48,0.00,,---,3.05,VWS V14.01,2013-06-14 22:42:00,
2013-06-14 18:43:00,74.2,52.7,29.21,WNW,292,0.2,0.2,47,0.00,,---,3.05,VWS V14.01,2013-06-14 22:43:00,
2013-06-14 18:44:00,74.2,53.3,29.21,WNW,292,0.2,0.2,48,0.00,,---,3.05,VWS V14.01,2013-06-14 22:44:00,
2013-06-14 18:45:00,74.0,53.1,29.21,NNE,22,1.1,1.1,48,0.00,,---,3.05,VWS V14.01,2013-06-14 22:45:00,
2013-06-14 18:46:00,74.0,53.1,29.21,NW,315,0.7,1.1,48,0.00,,---,3.05,VWS V14.01,2013-06-14 22:46:00,
2013-06-14 18:47:00,74.0,53.1,29.21,NW,315,0.0,0.7,48,0.00,,---,3.05,VWS V14.01,2013-06-14 22:47:00,
2013-06-14 18:48:00,73.8,52.9,29.21,NW,315,0.7,0.7,48,0.00,,---,3.05,VWS V14.01,2013-06-14 22:48:00,
2013-06-14 18:49:00,73.8,52.9,29.21,West,270,0.0,0.9,48,0.00,,---,3.05,VWS V14.01,2013-06-14 22:49:00,
2013-06-14 18:50:00,73.6,52.7,29.21,NNE,22,0.0,0.4,48,0.00,,---,3.05,VWS V14.01,2013-06-14 22:50:00,
2013-06-14 18:51:00,73.6,52.7,29.22,NNW,338,0.0,0.2,48,0.00,,---,3.05,VWS V14.01,2013-06-14 22:51:00,
2013-06-14 18:52:00,73.6,52.7,29.22,WNW,292,0.2,0.2,48,0.00,,---,3.05,VWS V14.01,2013-06-14 22:52:00,
2013-06-14 18:53:00,73.6,53.3,29.22,West,270,0.2,0.4,49,0.00,,---,3.05,VWS V14.01,2013-06-14 22:53:00,
2013-06-14 18:54:00,73.4,53.1,29.21,West,270,0.0,0.2,49,0.00,,---,3.05,VWS V14.01,2013-06-14 22:54:00,
2013-06-14 18:55:00,73.6,53.3,29.22,WNW,292,0.0,0.4,49,0.00,,---,3.05,VWS V14.01,2013-06-14 22:55:00,
2013-06-14 18:56:00,73.4,53.1,29.22,NNE,22,0.0,0.0,49,0.00,,---,3.05,VWS V14.01,2013-06-14 22:56:00,
2013-06-14 18:57:00,73.4,53.1,29.22,WNW,292,0.4,1.1,49,0.00,,---,3.05,VWS V14.01,2013-06-14 22:57:00,
2013-06-14 18:58:00,73.4,53.1,29.22,North,0,0.4,0.4,49,0.00,,---,3.05,VWS V14.01,2013-06-14 22:58:00,
2013-06-14 18:59:00,73.4,53.1,29.22,NNW,338,0.0,0.7,49,0.00,,---,3.05,VWS V14.01,2013-06-14 22:59:00,
2013-06-14 19:00:00,73.3,53.0,29.22,North,0,0.2,0.2,49,0.00,,---,3.05,VWS V14.01,2013-06-14 23:00:00,
2013-06-14 19:01:00,73.4,53.7,29.22,North,0,0.7,0.7,50,0.00,,---,3.05,VWS V14.01,2013-06-14 23:01:00,
2013-06-14 19:02:00,73.3,53.6,29.22,NNE,22,1.1,1.1,50,0.00,,---,3.05,VWS V14.01,2013-06-14 23:02:00,
2013-06-14 19:03:00,73.3,53.6,29.22,West,270,0.4,1.1,50,0.00,,---,3.05,VWS V14.01,2013-06-14 23:03:00,
2013-06-14 19:04:00,73.3,53.6,29.22,WNW,292,0.2,0.4,50,0.00,,---,3.05,VWS V14.01,2013-06-14 23:04:00,
2013-06-14 19:05:00,73.3,53.6,29.22,WNW,292,0.0,0.0,50,0.00,,---,3.05,VWS V14.01,2013-06-14 23:05:00,
2013-06-14 19:06:00,73.3,53.6,29.22,WNW,292,0.0,0.0,50,0.00,,---,3.05,VWS V14.01,2013-06-14 23:06:00,
2013-06-14 19:07:00,73.3,54.1,29.22,WNW,292,0.0,0.0,51,0.00,,---,3.05,VWS V14.01,2013-06-14 23:07:00,
2013-06-14 19:08:00,73.1,53.9,29.22,WNW,292,0.0,0.0,51,0.00,,---,3.05,VWS V14.01,2013-06-14 23:08:00,
2013-06-14 19:09:00,73.1,54.5,29.22,WNW,292,0.0,0.0,52,0.00,,---,0.00,VWS V14.01,2013-06-14 23:09:00,
2013-06-14 19:10:00,73.1,54.5,29.22,WNW,292,0.0,0.0,52,0.00,,---,0.00,VWS V14.01,2013-06-14 23:10:00,
2013-06-14 19:11:00,73.1,54.5,29.22,WNW,292,0.0,0.0,52,0.00,,---,0.00,VWS V14.01,2013-06-14 23:11:00,
2013-06-14 19:12:00,73.1,54.5,29.22,NE,45,0.2,0.2,52,0.00,,---,0.00,VWS V14.01,2013-06-14 23:12:00,
2013-06-14 19:13:00,72.9,54.3,29.22,NE,45,0.0,0.2,52,0.00,,---,0.00,VWS V14.01,2013-06-14 23:13:00,
2013-06-14 19:14:00,72.9,54.3,29.22,NE,45,0.0,0.0,52,0.00,,---,0.00,VWS V14.01,2013-06-14 23:14:00,
2013-06-14 19:15:00,72.7,54.1,29.22,NE,45,0.0,0.0,52,0.00,,---,0.00,VWS V14.01,2013-06-14 23:15:00,
2013-06-14 19:16:00,72.7,54.1,29.22,NE,45,0.0,0.0,52,0.00,,---,0.00,VWS V14.01,2013-06-14 23:16:00,
2013-06-14 19:17:00,72.7,54.6,29.22,NE,45,0.0,0.0,53,0.00,,---,0.00,VWS V14.01,2013-06-14 23:17:00,
2013-06-14 19:18:00,72.5,54.4,29.22,NE,45,0.0,0.0,53,0.00,,---,0.00,VWS V14.01,2013-06-14 23:18:00,
2013-06-14 19:19:00,72.5,54.4,29.22,NE,45,0.0,0.0,53,0.00,,---,0.00,VWS V14.01,2013-06-14 23:19:00,
2013-06-14 19:20:00,72.5,54.4,29.22,NE,45,0.0,0.0,53,0.00,,---,0.00,VWS V14.01,2013-06-14 23:20:00,
2013-06-14 19:21:00,72.4,54.3,29.22,NE,45,0.0,0.0,53,0.00,,---,0.00,VWS V14.01,2013-06-14 23:21:00,
2013-06-14 19:22:00,72.4,54.8,29.22,NE,45,0.0,0.0,54,0.00,,---,0.00,VWS V14.01,2013-06-14 23:22:00,
2013-06-14 19:23:00,72.4,54.8,29.22,NE,45,0.0,0.0,54,0.00,,---,0.00,VWS V14.01,2013-06-14 23:23:00,
2013-06-14 19:24:00,72.2,54.7,29.22,NE,45,0.0,0.0,54,0.00,,---,0.00,VWS V14.01,2013-06-14 23:24:00,
2013-06-14 19:25:00,72.0,54.5,29.22,NE,45,0.0,0.0,54,0.00,,---,0.00,VWS V14.01,2013-06-14 23:25:00,
2013-06-14 19:26:00,72.0,54.5,29.22,NE,45,0.0,0.0,54,0.00,,---,0.00,VWS V14.01,2013-06-14 23:26:00,
2013-06-14 19:27:00,72.0,54.5,29.22,NE,45,0.0,0.0,54,0.00,,---,0.00,VWS V14.01,2013-06-14 23:27:00,
2013-06-14 19:28:00,71.6,54.1,29.22,SSE,158,0.0,0.4,54,0.00,,---,0.00,VWS V14.01,2013-06-14 23:28:00,
2013-06-14 19:29:00,71.6,54.1,29.22,SSE,158,0.0,0.0,54,0.00,,---,0.00,VWS V14.01,2013-06-14 23:29:00,
2013-06-14 19:30:00,71.5,54.0,29.22,SSE,158,0.0,0.0,54,0.00,,---,0.00,VWS V14.01,2013-06-14 23:30:00,
2013-06-14 19:31:00,71.5,54.0,29.22,SSE,158,0.0,0.0,54,0.00,,---,0.00,VWS V14.01,2013-06-14 23:31:00,
2013-06-14 19:32:00,71.5,54.0,29.23,SSE,158,0.0,0.0,54,0.00,,---,0.00,VWS V14.01,2013-06-14 23:32:00,
2013-06-14 19:33:00,71.5,54.0,29.23,SSE,158,0.0,0.0,54,0.00,,---,0.00,VWS V14.01,2013-06-14 23:33:00,
2013-06-14 19:34:00,70.9,53.4,29.23,SSE,158,0.0,0.0,54,0.00,,---,0.00,VWS V14.01,2013-06-14 23:34:00,
2013-06-14 19:35:00,70.9,53.4,29.23,SSE,158,0.0,0.0,54,0.00,,---,0.00,VWS V14.01,2013-06-14 23:35:00,
2013-06-14 19:36:00,70.9,53.9,29.23,SSE,158,0.0,0.0,55,0.00,,---,0.00,VWS V14.01,2013-06-14 23:36:00,
2013-06-14 19:37:00,70.7,53.8,29.23,SSE,158,0.0,0.0,55,0.00,,---,0.00,VWS V14.01,2013-06-14 23:37:00,
2013-06-14 19:38:00,70.7,53.8,29.23,SSE,158,0.0,0.0,55,0.00,,---,0.00,VWS V14.01,2013-06-14 23:38:00,
2013-06-14 19:39:00,70.6,53.7,29.23,SSE,158,0.0,0.0,55,0.00,,---,0.00,VWS V14.01,2013-06-14 23:39:00,
2013-06-14 19:40:00,70.6,53.7,29.23,SSE,158,0.0,0.0,55,0.00,,---,0.00,VWS V14.01,2013-06-14 23:40:00,
2013-06-14 19:41:00,70.6,53.7,29.23,SSE,158,0.0,0.0,55,0.00,,---,0.00,VWS V14.01,2013-06-14 23:41:00,
2013-06-14 19:42:00,70.4,53.5,29.23,SSE,158,0.0,0.0,55,0.00,,---,0.00,VWS V14.01,2013-06-14 23:42:00,
2013-06-14 19:43:00,70.2,53.3,29.23,SSE,158,0.0,0.0,55,0.00,,---,0.00,VWS V14.01,2013-06-14 23:43:00,
2013-06-14 19:44:00,70.2,53.3,29.23,SSE,158,0.0,0.0,55,0.00,,---,0.00,VWS V14.01,2013-06-14 23:44:00,
2013-06-14 19:45:00,70.0,52.6,29.23,SSE,158,0.0,0.0,54,0.00,,---,0.00,VWS V14.01,2013-06-14 23:45:00,
2013-06-14 19:46:00,70.0,52.6,29.23,SSE,158,0.0,0.0,54,0.00,,---,0.00,VWS V14.01,2013-06-14 23:46:00,
2013-06-14 19:47:00,69.8,52.9,29.23,SSE,158,0.0,0.0,55,0.00,,---,0.00,VWS V14.01,2013-06-14 23:47:00,
2013-06-14 19:48:00,69.8,52.9,29.23,SSE,158,0.0,0.0,55,0.00,,---,0.00,VWS V14.01,2013-06-14 23:48:00,
2013-06-14 19:49:00,69.7,52.8,29.23,SSE,158,0.0,0.0,55,0.00,,---,0.00,VWS V14.01,2013-06-14 23:49:00,
2013-06-14 19:50:00,69.5,52.6,29.23,SSE,158,0.0,0.0,55,0.00,,---,0.00,VWS V14.01,2013-06-14 23:50:00,
2013-06-14 19:51:00,69.5,52.6,29.24,SSE,158,0.0,0.0,55,0.00,,---,0.00,VWS V14.01,2013-06-14 23:51:00,
2013-06-14 19:52:00,69.5,52.6,29.24,SSE,158,0.0,0.0,55,0.00,,---,0.00,VWS V14.01,2013-06-14 23:52:00,
2013-06-14 19:53:00,69.5,52.6,29.24,SSE,158,0.0,0.0,55,0.00,,---,0.00,VWS V14.01,2013-06-14 23:53:00,
2013-06-14 19:54:00,69.3,52.5,29.24,SSE,158,0.0,0.0,55,0.00,,---,0.00,VWS V14.01,2013-06-14 23:54:00,
2013-06-14 19:55:00,69.3,52.5,29.24,SSE,158,0.0,0.0,55,0.00,,---,0.00,VWS V14.01,2013-06-14 23:55:00,
2013-06-14 19:56:00,69.1,52.8,29.24,SSE,158,0.0,0.0,56,0.00,,---,0.00,VWS V14.01,2013-06-14 23:56:00,
2013-06-14 19:57:00,69.1,52.8,29.24,SSE,158,0.0,0.0,56,0.00,,---,0.00,VWS V14.01,2013-06-14 23:57:00,
2013-06-14 19:58:00,68.9,52.6,29.24,SSE,158,0.0,0.0,56,0.00,,---,0.00,VWS V14.01,2013-06-14 23:58:00,
2013-06-14 19:59:00,68.8,52.5,29.24,SSE,158,0.0,0.0,56,0.00,,---,0.00,VWS V14.01,2013-06-14 23:59:00,
2013-06-14 20:00:00,68.8,52.5,29.24,SSE,158,0.0,0.0,56,0.00,,---,0.00,VWS V14.01,2013-06-15 00:00:00,
2013-06-14 20:01:00,68.8,52.5,29.24,SSE,158,0.0,0.0,56,0.00,,---,0.00,VWS V14.01,2013-06-15 00:01:00,
2013-06-14 20:02:00,68.8,52.5,29.24,SSE,158,0.0,0.0,56,0.00,,---,0.00,VWS V14.01,2013-06-15 00:02:00,
2013-06-14 20:03:00,68.8,52.5,29.24,SSE,158,0.0,0.0,56,0.00,,---,0.00,VWS V14.01,2013-06-15 00:03:00,
2013-06-14 20:04:00,68.6,52.8,29.24,SSE,158,0.0,0.0,57,0.00,,---,0.00,VWS V14.01,2013-06-15 00:04:00,
2013-06-14 20:05:00,68.6,52.8,29.24,SSE,158,0.0,0.0,57,0.00,,---,0.00,VWS V14.01,2013-06-15 00:05:00,
2013-06-14 20:06:00,68.4,52.6,29.24,SSE,158,0.0,0.0,57,0.00,,---,0.00,VWS V14.01,2013-06-15 00:06:00,
2013-06-14 20:07:00,68.4,52.6,29.24,SSE,158,0.0,0.0,57,0.00,,---,0.00,VWS V14.01,2013-06-15 00:07:00,
2013-06-14 20:08:00,68.2,52.4,29.24,SSE,158,0.0,0.4,57,0.00,,---,0.00,VWS V14.01,2013-06-15 00:08:00,
2013-06-14 20:09:00,68.0,53.2,29.24,SSE,158,0.0,0.0,59,0.00,,---,0.00,VWS V14.01,2013-06-15 00:09:00,
2013-06-14 20:10:00,68.0,52.7,29.24,SSE,158,0.0,0.0,58,0.00,,---,0.00,VWS V14.01,2013-06-15 00:10:00,
2013-06-14 20:11:00,68.0,53.2,29.24,SSE,158,0.2,0.2,59,0.00,,---,0.00,VWS V14.01,2013-06-15 00:11:00,
2013-06-14 20:12:00,67.9,53.1,29.24,SSE,158,0.0,0.2,59,0.00,,---,0.00,VWS V14.01,2013-06-15 00:12:00,
2013-06-14 20:13:00,67.7,53.3,29.24,SSE,158,0.0,0.4,60,0.00,,---,0.00,VWS V14.01,2013-06-15 00:13:00,
2013-06-14 20:14:00,67.7,53.3,29.24,SSE,158,0.0,0.0,60,0.00,,---,0.00,VWS V14.01,2013-06-15 00:14:00,
2013-06-14 20:15:00,67.5,53.1,29.24,SSE,158,0.0,0.0,60,0.00,,---,0.00,VWS V14.01,2013-06-15 00:15:00,
2013-06-14 20:16:00,67.3,53.4,29.24,SSE,158,0.0,0.0,61,0.00,,---,0.00,VWS V14.01,2013-06-15 00:16:00,
2013-06-14 20:17:00,67.3,53.4,29.24,SSE,158,0.0,0.0,61,0.00,,---,0.00,VWS V14.01,2013-06-15 00:17:00,
2013-06-14 20:18:00,67.3,53.8,29.24,SSE,158,0.0,0.0,62,0.00,,---,0.00,VWS V14.01,2013-06-15 00:18:00,
2013-06-14 20:19:00,67.1,53.7,29.25,SSE,158,0.0,0.4,62,0.00,,---,0.00,VWS V14.01,2013-06-15 00:19:00,
2013-06-14 20:20:00,67.1,53.7,29.24,SSE,158,0.0,0.0,62,0.00,,---,0.00,VWS V14.01,2013-06-15 00:20:00,
2013-06-14 20:21:00,67.0,53.6,29.25,SSE,158,0.0,0.0,62,0.00,,---,0.00,VWS V14.01,2013-06-15 00:21:00,
2013-06-14 20:22:00,67.0,53.6,29.25,SSE,158,0.0,0.0,62,0.00,,---,0.00,VWS V14.01,2013-06-15 00:22:00,
2013-06-14 20:23:00,67.0,53.6,29.25,SSE,158,0.0,0.0,62,0.00,,---,0.00,VWS V14.01,2013-06-15 00:23:00,
2013-06-14 20:24:00,67.0,54.0,29.25,SSE,158,0.0,0.0,63,0.00,,---,0.00,VWS V14.01,2013-06-15 00:24:00,
2013-06-14 20:25:00,66.8,53.8,29.25,SSE,158,0.0,0.0,63,0.00,,---,0.00,VWS V14.01,2013-06-15 00:25:00,
2013-06-14 20:26:00,66.8,54.2,29.25,SSE,158,0.0,0.0,64,0.00,,---,0.00,VWS V14.01,2013-06-15 00:26:00,
2013-06-14 20:27:00,66.8,54.2,29.25,SSE,158,0.0,0.0,64,0.00,,---,0.00,VWS V14.01,2013-06-15 00:27:00,
2013-06-14 20:28:00,66.6,54.1,29.25,SSE,158,0.0,0.0,64,0.00,,---,0.00,VWS V14.01,2013-06-15 00:28:00,
2013-06-14 20:29:00,66.6,54.5,29.25,SSE,158,0.0,0.0,65,0.00,,---,0.00,VWS V14.01,2013-06-15 00:29:00,
2013-06-14 20:30:00,66.4,53.9,29.25,SSE,158,0.0,0.0,64,0.00,,---,0.00,VWS V14.01,2013-06-15 00:30:00,
2013-06-14 20:31:00,66.4,53.9,29.25,SSE,158,0.0,0.0,64,0.00,,---,0.00,VWS V14.01,2013-06-15 00:31:00,
2013-06-14 20:32:00,66.2,53.7,29.25,SSE,158,0.0,0.0,64,0.00,,---,0.00,VWS V14.01,2013-06-15 00:32:00,
2013-06-14 20:33:00,66.2,54.1,29.25,SSE,158,0.0,0.0,65,0.00,,---,0.00,VWS V14.01,2013-06-15 00:33:00,
2013-06-14 20:34:00,66.2,54.1,29.25,SSE,158,0.2,0.2,65,0.00,,---,0.00,VWS V14.01,2013-06-15 00:34:00,
2013-06-14 20:35:00,66.2,54.1,29.25,SSE,158,0.0,0.2,65,0.00,,---,0.00,VWS V14.01,2013-06-15 00:35:00,
2013-06-14 20:36:00,66.2,54.1,29.25,SSE,158,0.0,0.0,65,0.00,,---,0.00,VWS V14.01,2013-06-15 00:36:00,
2013-06-14 20:37:00,66.2,54.1,29.25,SSE,158,0.0,0.0,65,0.00,,---,0.00,VWS V14.01,2013-06-15 00:37:00,
2013-06-14 20:38:00,66.2,54.1,29.25,SSE,158,0.0,0.0,65,0.00,,---,0.00,VWS V14.01,2013-06-15 00:38:00,
2013-06-14 20:39:00,65.9,53.8,29.25,SSE,158,0.0,0.0,65,0.00,,---,0.00,VWS V14.01,2013-06-15 00:39:00,
2013-06-14 20:40:00,65.9,53.8,29.25,SSE,158,0.0,0.0,65,0.00,,---,0.00,VWS V14.01,2013-06-15 00:40:00,
2013-06-14 20:41:00,65.9,53.8,29.25,SSE,158,0.0,0.0,65,0.00,,---,0.00,VWS V14.01,2013-06-15 00:41:00,
2013-06-14 20:42:00,65.9,53.8,29.25,SSE,158,0.0,0.0,65,0.00,,---,0.00,VWS V14.01,2013-06-15 00:42:00,
2013-06-14 20:43:00,65.9,53.8,29.25,SSE,158,0.0,0.0,65,0.00,,---,0.00,VWS V14.01,2013-06-15 00:43:00,
2013-06-14 20:44:00,65.7,54.0,29.25,SSE,158,0.0,0.0,66,0.00,,---,0.00,VWS V14.01,2013-06-15 00:44:00,
2013-06-14 20:45:00,65.5,53.8,29.25,SSE,158,0.0,0.0,66,0.00,,---,0.00,VWS V14.01,2013-06-15 00:45:00,
2013-06-14 20:46:00,65.5,53.8,29.25,SSE,158,0.0,0.0,66,0.00,,---,0.00,VWS V14.01,2013-06-15 00:46:00,
2013-06-14 20:47:00,65.3,53.7,29.25,SSE,158,0.0,0.0,66,0.00,,---,0.00,VWS V14.01,2013-06-15 00:47:00,
2013-06-14 20:48:00,65.3,53.7,29.25,SSE,158,0.0,0.0,66,0.00,,---,0.00,VWS V14.01,2013-06-15 00:48:00,
2013-06-14 20:49:00,65.2,53.6,29.25,SSE,158,0.0,0.0,66,0.00,,---,0.00,VWS V14.01,2013-06-15 00:49:00,
2013-06-14 20:50:00,65.2,53.6,29.25,SSE,158,0.0,0.0,66,0.00,,---,0.00,VWS V14.01,2013-06-15 00:50:00,
2013-06-14 20:51:00,65.2,53.6,29.25,SSE,158,0.0,0.0,66,0.00,,---,0.00,VWS V14.01,2013-06-15 00:51:00,
2013-06-14 20:52:00,65.2,53.6,29.25,SSE,158,0.4,0.4,66,0.00,,---,0.00,VWS V14.01,2013-06-15 00:52:00,
2013-06-14 20:53:00,65.2,53.6,29.25,SSE,158,0.0,0.4,66,0.00,,---,0.00,VWS V14.01,2013-06-15 00:53:00,
2013-06-14 20:54:00,65.2,53.6,29.25,SSE,158,0.0,0.0,66,0.00,,---,0.00,VWS V14.01,2013-06-15 00:54:00,
2013-06-14 20:55:00,65.0,53.8,29.25,SSE,158,0.0,0.0,67,0.00,,---,0.00,VWS V14.01,2013-06-15 00:55:00,
2013-06-14 20:56:00,65.0,53.8,29.25,SSE,158,0.0,0.0,67,0.00,,---,0.00,VWS V14.01,2013-06-15 00:56:00,
2013-06-14 20:57:00,65.0,53.8,29.26,SSW,202,0.4,0.4,67,0.00,,---,0.00,VWS V14.01,2013-06-15 00:57:00,
2013-06-14 20:58:00,65.0,53.8,29.26,SW,225,0.4,0.7,67,0.00,,---,0.00,VWS V14.01,2013-06-15 00:58:00,
2013-06-14 20:59:00,65.0,53.8,29.26,SW,225,0.0,0.0,67,0.00,,---,0.00,VWS V14.01,2013-06-15 00:59:00,
2013-06-14 21:00:00,64.8,53.6,29.26,SW,225,0.0,0.0,67,0.00,,---,0.00,VWS V14.01,2013-06-15 01:00:00,
2013-06-14 21:01:00,64.8,53.6,29.26,SW,225,0.0,0.0,67,0.00,,---,0.00,VWS V14.01,2013-06-15 01:01:00,
2013-06-14 21:02:00,64.8,53.6,29.26,SW,225,0.0,0.0,67,0.00,,---,0.00,VWS V14.01,2013-06-15 01:02:00,
2013-06-14 21:03:00,64.8,53.6,29.26,SW,225,0.4,0.4,67,0.00,,---,0.00,VWS V14.01,2013-06-15 01:03:00,
2013-06-14 21:04:00,64.8,53.6,29.26,SW,225,0.0,0.0,67,0.00,,---,0.00,VWS V14.01,2013-06-15 01:04:00,
2013-06-14 21:05:00,64.6,53.4,29.26,SW,225,0.0,0.0,67,0.00,,---,0.00,VWS V14.01,2013-06-15 01:05:00,
2013-06-14 21:06:00,64.6,53.4,29.26,SW,225,0.0,0.0,67,0.00,,---,0.00,VWS V14.01,2013-06-15 01:06:00,
2013-06-14 21:07:00,64.6,53.4,29.26,SW,225,0.0,0.0,67,0.00,,---,0.00,VWS V14.01,2013-06-15 01:07:00,
2013-06-14 21:08:00,64.4,53.2,29.26,SW,225,0.0,0.0,67,0.00,,---,0.00,VWS V14.01,2013-06-15 01:08:00,
2013-06-14 21:09:00,64.4,53.6,29.26,SW,225,0.0,0.0,68,0.00,,---,0.00,VWS V14.01,2013-06-15 01:09:00,
2013-06-14 21:10:00,64.4,53.6,29.26,SSW,202,0.2,0.2,68,0.00,,---,0.00,VWS V14.01,2013-06-15 01:10:00,
2013-06-14 21:11:00,64.4,53.6,29.26,SSW,202,0.2,0.2,68,0.00,,---,0.00,VWS V14.01,2013-06-15 01:11:00,
2013-06-14 21:12:00,64.4,53.6,29.26,SSW,202,0.2,0.2,68,0.00,,---,0.00,VWS V14.01,2013-06-15 01:12:00,
2013-06-14 21:13:00,64.4,53.6,29.26,SSW,202,0.2,0.2,68,0.00,,---,0.00,VWS V14.01,2013-06-15 01:13:00,
2013-06-14 21:14:00,63.9,53.5,29.26,SE,135,0.4,0.4,69,0.00,,---,0.00,VWS V14.01,2013-06-15 01:14:00,
2013-06-14 21:15:00,63.9,53.5,29.26,SE,135,0.4,0.4,69,0.00,,---,0.00,VWS V14.01,2013-06-15 01:15:00,
2013-06-14 21:16:00,63.9,53.5,29.26,SE,135,0.4,0.4,69,0.00,,---,0.00,VWS V14.01,2013-06-15 01:16:00,
2013-06-14 21:17:00,63.9,53.5,29.26,SE,135,0.4,0.4,69,0.00,,---,0.00,VWS V14.01,2013-06-15 01:17:00,
2013-06-14 21:18:00,63.5,53.2,29.27,SE,135,0.0,0.4,69,0.00,,---,0.00,VWS V14.01,2013-06-15 01:18:00,
2013-06-14 21:19:00,63.5,53.2,29.27,SE,135,0.0,0.0,69,0.00,,---,0.00,VWS V14.01,2013-06-15 01:19:00,
2013-06-14 21:20:00,63.4,53.1,29.27,SE,135,0.0,0.0,69,0.00,,---,0.00,VWS V14.01,2013-06-15 01:20:00,
2013-06-14 21:21:00,63.4,53.5,29.27,SE,135,0.0,0.0,70,0.00,,---,0.00,VWS V14.01,2013-06-15 01:21:00,
2013-06-14 21:22:00,63.2,53.3,29.27,SE,135,0.2,0.2,70,0.00,,---,0.00,VWS V14.01,2013-06-15 01:22:00,
2013-06-14 21:23:00,63.2,53.3,29.27,SE,135,0.0,0.2,70,0.00,,---,0.00,VWS V14.01,2013-06-15 01:23:00,
2013-06-14 21:24:00,63.2,53.3,29.27,SE,135,0.0,0.0,70,0.00,,---,0.00,VWS V14.01,2013-06-15 01:24:00,
2013-06-14 21:25:00,63.0,53.1,29.27,SE,135,0.4,0.4,70,0.00,,---,0.00,VWS V14.01,2013-06-15 01:25:00,
2013-06-14 21:26:00,63.0,53.1,29.27,SE,135,0.0,0.4,70,0.00,,---,0.00,VWS V14.01,2013-06-15 01:26:00,
2013-06-14 21:27:00,63.0,53.5,29.27,SE,135,0.4,0.4,71,0.00,,---,0.00,VWS V14.01,2013-06-15 01:27:00,
2013-06-14 21:28:00,63.0,53.5,29.27,SE,135,0.4,0.4,71,0.00,,---,0.00,VWS V14.01,2013-06-15 01:28:00,
2013-06-14 21:29:00,63.0,53.5,29.27,SE,135,0.4,0.4,71,0.00,,---,0.00,VWS V14.01,2013-06-15 01:29:00,
2013-06-14 21:30:00,63.0,53.5,29.27,SE,135,0.4,0.4,71,0.00,,---,0.00,VWS V14.01,2013-06-15 01:30:00,
2013-06-14 21:31:00,62.8,53.3,29.27,SSE,158,0.0,0.4,71,0.00,,---,0.00,VWS V14.01,2013-06-15 01:31:00,
2013-06-14 21:32:00,62.8,53.7,29.27,SSE,158,0.2,0.2,72,0.00,,---,0.00,VWS V14.01,2013-06-15 01:32:00,
2013-06-14 21:33:00,62.6,53.5,29.27,SSE,158,0.0,0.2,72,0.00,,---,0.00,VWS V14.01,2013-06-15 01:33:00,
2013-06-14 21:34:00,62.6,53.5,29.27,SSE,158,0.0,0.0,72,0.00,,---,0.00,VWS V14.01,2013-06-15 01:34:00,
2013-06-14 21:35:00,62.6,53.5,29.27,SSE,158,0.0,0.0,72,0.00,,---,0.00,VWS V14.01,2013-06-15 01:35:00,
2013-06-14 21:36:00,62.6,53.5,29.27,SSE,158,0.0,0.0,72,0.00,,---,0.00,VWS V14.01,2013-06-15 01:36:00,
2013-06-14 21:37:00,62.6,53.5,29.28,SSE,158,0.0,0.0,72,0.00,,---,0.00,VWS V14.01,2013-06-15 01:37:00,
2013-06-14 21:38:00,62.6,53.1,29.27,SSE,158,0.0,0.0,71,0.00,,---,0.00,VWS V14.01,2013-06-15 01:38:00,
2013-06-14 21:39:00,62.5,53.4,29.28,SSE,158,0.0,0.0,72,0.00,,---,0.00,VWS V14.01,2013-06-15 01:39:00,
2013-06-14 21:40:00,62.5,53.4,29.27,SSE,158,0.0,0.0,72,0.00,,---,0.00,VWS V14.01,2013-06-15 01:40:00,
2013-06-14 21:41:00,62.5,53.4,29.27,SSE,158,0.0,0.0,72,0.00,,---,0.00,VWS V14.01,2013-06-15 01:41:00,
2013-06-14 21:42:00,62.5,53.4,29.28,SSE,158,0.0,0.0,72,0.00,,---,0.00,VWS V14.01,2013-06-15 01:42:00,
2013-06-14 21:43:00,62.5,53.4,29.28,SSE,158,0.0,0.0,72,0.00,,---,0.00,VWS V14.01,2013-06-15 01:43:00,
2013-06-14 21:44:00,62.5,53.4,29.28,SSE,158,0.0,0.0,72,0.00,,---,0.00,VWS V14.01,2013-06-15 01:44:00,
2013-06-14 21:45:00,62.5,53.4,29.28,SSE,158,0.0,0.0,72,0.00,,---,0.00,VWS V14.01,2013-06-15 01:45:00,
2013-06-14 21:46:00,62.5,53.4,29.28,SSE,158,0.0,0.0,72,0.00,,---,0.00,VWS V14.01,2013-06-15 01:46:00,
2013-06-14 21:47:00,62.5,53.4,29.28,SSE,158,0.0,0.0,72,0.00,,---,0.00,VWS V14.01,2013-06-15 01:47:00,
2013-06-14 21:48:00,62.5,53.4,29.28,SSE,158,0.0,0.0,72,0.00,,---,0.00,VWS V14.01,2013-06-15 01:48:00,
2013-06-14 21:49:00,62.3,53.2,29.28,SSE,158,0.0,0.0,72,0.00,,---,0.00,VWS V14.01,2013-06-15 01:49:00,
2013-06-14 21:50:00,62.3,53.2,29.28,SSE,158,0.0,0.0,72,0.00,,---,0.00,VWS V14.01,2013-06-15 01:50:00,
2013-06-14 21:51:00,62.1,53.3,29.28,SSE,158,0.0,0.0,73,0.00,,---,0.00,VWS V14.01,2013-06-15 01:51:00,
2013-06-14 21:52:00,62.1,53.3,29.28,SSE,158,0.0,0.0,73,0.00,,---,0.00,VWS V14.01,2013-06-15 01:52:00,
2013-06-14 21:53:00,62.1,53.3,29.28,SSE,158,0.0,0.2,73,0.00,,---,0.00,VWS V14.01,2013-06-15 01:53:00,
2013-06-14 21:54:00,62.1,53.3,29.28,SSE,158,0.0,0.0,73,0.00,,---,0.00,VWS V14.01,2013-06-15 01:54:00,
2013-06-14 21:55:00,61.9,52.8,29.28,SSE,158,0.0,0.0,72,0.00,,---,0.00,VWS V14.01,2013-06-15 01:55:00,
2013-06-14 21:56:00,61.9,52.8,29.28,SSE,158,0.0,0.0,72,0.00,,---,0.00,VWS V14.01,2013-06-15 01:56:00,
2013-06-14 21:57:00,61.9,52.8,29.28,SSE,158,0.0,0.2,72,0.00,,---,0.00,VWS V14.01,2013-06-15 01:57:00,
2013-06-14 21:58:00,61.9,52.8,29.28,SSE,158,0.0,0.0,72,0.00,,---,0.00,VWS V14.01,2013-06-15 01:58:00,
2013-06-14 21:59:00,61.9,52.8,29.28,SSE,158,0.0,0.0,72,0.00,,---,0.00,VWS V14.01,2013-06-15 01:59:00,
2013-06-14 22:00:00,61.9,52.8,29.28,SSE,158,0.0,0.0,72,0.00,,---,0.00,VWS V14.01,2013-06-15 02:00:00,
2013-06-14 22:01:00,61.9,52.8,29.28,SSE,158,0.0,0.0,72,0.00,,---,0.00,VWS V14.01,2013-06-15 02:01:00,
2013-06-14 22:02:00,61.7,52.6,29.28,SSE,158,0.0,0.0,72,0.00,,---,0.00,VWS V14.01,2013-06-15 02:02:00,
2013-06-14 22:03:00,61.6,52.9,29.28,SSE,158,0.0,0.0,73,0.00,,---,0.00,VWS V14.01,2013-06-15 02:03:00,
2013-06-14 22:04:00,61.6,52.9,29.28,SSE,158,0.0,0.0,73,0.00,,---,0.00,VWS V14.01,2013-06-15 02:04:00,
2013-06-14 22:05:00,61.6,52.9,29.28,SSE,158,0.0,0.0,73,0.00,,---,0.00,VWS V14.01,2013-06-15 02:05:00,
2013-06-14 22:06:00,61.6,52.9,29.28,SSE,158,0.0,0.2,73,0.00,,---,0.00,VWS V14.01,2013-06-15 02:06:00,
2013-06-14 22:07:00,61.6,52.9,29.28,SSE,158,0.0,0.0,73,0.00,,---,0.00,VWS V14.01,2013-06-15 02:07:00,
2013-06-14 22:08:00,61.6,52.9,29.28,SSE,158,0.0,0.0,73,0.00,,---,0.00,VWS V14.01,2013-06-15 02:08:00,
2013-06-14 22:09:00,61.6,52.9,29.28,SSE,158,0.0,0.0,73,0.00,,---,0.00,VWS V14.01,2013-06-15 02:09:00,
2013-06-14 22:10:00,61.4,52.7,29.28,SSE,158,0.2,0.2,73,0.00,,---,0.00,VWS V14.01,2013-06-15 02:10:00,
2013-06-14 22:11:00,61.4,52.7,29.28,SSE,158,0.2,0.2,73,0.00,,---,0.00,VWS V14.01,2013-06-15 02:11:00,
2013-06-14 22:12:00,61.4,52.7,29.28,SSE,158,0.2,0.2,73,0.00,,---,0.00,VWS V14.01,2013-06-15 02:12:00,
2013-06-14 22:13:00,61.4,52.7,29.28,SSE,158,0.2,0.2,73,0.00,,---,0.00,VWS V14.01,2013-06-15 02:13:00,
2013-06-14 22:14:00,61.2,52.5,29.28,SSE,158,0.0,0.0,73,0.00,,---,0.00,VWS V14.01,2013-06-15 02:14:00,
2013-06-14 22:15:00,61.2,52.5,29.28,SSE,158,0.0,0.0,73,0.00,,---,0.00,VWS V14.01,2013-06-15 02:15:00,
2013-06-14 22:16:00,61.2,52.5,29.28,SSE,158,0.0,0.0,73,0.00,,---,0.00,VWS V14.01,2013-06-15 02:16:00,
2013-06-14 22:17:00,61.0,52.3,29.28,SSE,158,0.0,0.0,73,0.00,,---,0.00,VWS V14.01,2013-06-15 02:17:00,
2013-06-14 22:18:00,61.0,52.7,29.28,SSE,158,0.0,0.0,74,0.00,,---,0.00,VWS V14.01,2013-06-15 02:18:00,
2013-06-14 22:19:00,60.8,52.5,29.28,SSE,158,0.0,0.0,74,0.00,,---,0.00,VWS V14.01,2013-06-15 02:19:00,
2013-06-14 22:20:00,60.8,52.5,29.28,SSE,158,0.0,0.0,74,0.00,,---,0.00,VWS V14.01,2013-06-15 02:20:00,
2013-06-14 22:21:00,60.8,52.5,29.28,SSE,158,0.0,0.0,74,0.00,,---,0.00,VWS V14.01,2013-06-15 02:21:00,
2013-06-14 22:22:00,60.7,52.4,29.28,SSE,158,0.0,0.0,74,0.00,,---,0.00,VWS V14.01,2013-06-15 02:22:00,
2013-06-14 22:23:00,60.7,52.4,29.28,SSE,158,0.0,0.0,74,0.00,,---,0.00,VWS V14.01,2013-06-15 02:23:00,
2013-06-14 22:24:00,60.7,52.4,29.28,SSE,158,0.0,0.0,74,0.00,,---,0.00,VWS V14.01,2013-06-15 02:24:00,
2013-06-14 22:25:00,60.7,52.4,29.28,SSE,158,0.0,0.0,74,0.00,,---,0.00,VWS V14.01,2013-06-15 02:25:00,
2013-06-14 22:26:00,60.7,52.4,29.28,SSE,158,0.0,0.0,74,0.00,,---,0.00,VWS V14.01,2013-06-15 02:26:00,
2013-06-14 22:27:00,60.3,52.3,29.28,SSE,158,0.0,0.0,75,0.00,,---,0.00,VWS V14.01,2013-06-15 02:27:00,
2013-06-14 22:28:00,60.3,52.3,29.28,SSE,158,0.0,0.0,75,0.00,,---,0.00,VWS V14.01,2013-06-15 02:28:00,
2013-06-14 22:29:00,60.3,52.3,29.28,SSE,158,0.0,0.0,75,0.00,,---,0.00,VWS V14.01,2013-06-15 02:29:00,
2013-06-14 22:30:00,60.3,52.3,29.28,SSE,158,0.0,0.0,75,0.00,,---,0.00,VWS V14.01,2013-06-15 02:30:00,
2013-06-14 22:31:00,60.1,52.2,29.28,SSE,158,0.0,0.0,75,0.00,,---,0.00,VWS V14.01,2013-06-15 02:31:00,
2013-06-14 22:32:00,60.1,52.2,29.28,SSE,158,0.0,0.0,75,0.00,,---,0.00,VWS V14.01,2013-06-15 02:32:00,
2013-06-14 22:33:00,60.1,52.2,29.28,SSE,158,0.0,0.0,75,0.00,,---,0.00,VWS V14.01,2013-06-15 02:33:00,
2013-06-14 22:34:00,60.1,52.2,29.28,SSE,158,0.2,0.2,75,0.00,,---,0.00,VWS V14.01,2013-06-15 02:34:00,
2013-06-14 22:35:00,60.1,52.2,29.28,SSE,158,0.0,0.2,75,0.00,,---,0.00,VWS V14.01,2013-06-15 02:35:00,
2013-06-14 22:36:00,60.1,52.2,29.28,SSE,158,0.0,0.0,75,0.00,,---,0.00,VWS V14.01,2013-06-15 02:36:00,
2013-06-14 22:37:00,60.1,52.2,29.28,SSE,158,0.0,0.0,75,0.00,,---,0.00,VWS V14.01,2013-06-15 02:37:00,
2013-06-14 22:38:00,60.1,52.2,29.28,SSE,158,0.0,0.0,75,0.00,,---,0.00,VWS V14.01,2013-06-15 02:38:00,
2013-06-14 22:39:00,60.1,52.2,29.28,SSE,158,0.0,0.0,75,0.00,,---,0.00,VWS V14.01,2013-06-15 02:39:00,
2013-06-14 22:40:00,60.1,52.2,29.28,SSE,158,0.0,0.0,75,0.00,,---,0.00,VWS V14.01,2013-06-15 02:40:00,
2013-06-14 22:41:00,59.9,52.3,29.28,SSE,158,0.0,0.0,76,0.00,,---,0.00,VWS V14.01,2013-06-15 02:41:00,
2013-06-14 22:42:00,59.9,52.3,29.28,SSE,158,0.0,0.0,76,0.00,,---,0.00,VWS V14.01,2013-06-15 02:42:00,
2013-06-14 22:43:00,59.8,52.2,29.28,SSE,158,0.0,0.0,76,0.00,,---,0.00,VWS V14.01,2013-06-15 02:43:00,
2013-06-14 22:44:00,59.8,52.2,29.28,SSE,158,0.0,0.0,76,0.00,,---,0.00,VWS V14.01,2013-06-15 02:44:00,
2013-06-14 22:45:00,59.8,52.2,29.28,SSE,158,0.0,0.0,76,0.00,,---,0.00,VWS V14.01,2013-06-15 02:45:00,
2013-06-14 22:46:00,59.6,52.0,29.28,SSE,158,0.0,0.0,76,0.00,,---,0.00,VWS V14.01,2013-06-15 02:46:00,
2013-06-14 22:47:00,59.6,52.0,29.28,SSE,158,0.0,0.0,76,0.00,,---,0.00,VWS V14.01,2013-06-15 02:47:00,
2013-06-14 22:48:00,59.6,52.0,29.28,SSE,158,0.0,0.0,76,0.00,,---,0.00,VWS V14.01,2013-06-15 02:48:00,
2013-06-14 22:49:00,59.6,52.0,29.28,SSE,158,0.0,0.0,76,0.00,,---,0.00,VWS V14.01,2013-06-15 02:49:00,
2013-06-14 22:50:00,59.6,52.0,29.28,SSE,158,0.0,0.0,76,0.00,,---,0.00,VWS V14.01,2013-06-15 02:50:00,
2013-06-14 22:51:00,59.6,52.0,29.28,SSE,158,0.0,0.0,76,0.00,,---,0.00,VWS V14.01,2013-06-15 02:51:00,
2013-06-14 22:52:00,59.6,52.0,29.28,SSE,158,0.0,0.0,76,0.00,,---,0.00,VWS V14.01,2013-06-15 02:52:00,
2013-06-14 22:53:00,59.6,52.0,29.28,SSE,158,0.0,0.0,76,0.00,,---,0.00,VWS V14.01,2013-06-15 02:53:00,
2013-06-14 22:54:00,59.6,52.0,29.28,SSE,158,0.0,0.0,76,0.00,,---,0.00,VWS V14.01,2013-06-15 02:54:00,
2013-06-14 22:55:00,59.2,51.7,29.28,SSE,158,0.0,0.0,76,0.00,,---,0.00,VWS V14.01,2013-06-15 02:55:00,
2013-06-14 22:56:00,59.2,51.7,29.28,SSE,158,0.0,0.0,76,0.00,,---,0.00,VWS V14.01,2013-06-15 02:56:00,
2013-06-14 22:57:00,59.0,51.8,29.28,SSE,158,0.0,0.0,77,0.00,,---,0.00,VWS V14.01,2013-06-15 02:57:00,
2013-06-14 22:58:00,59.0,51.8,29.28,SSE,158,0.0,0.0,77,0.00,,---,0.00,VWS V14.01,2013-06-15 02:58:00,
2013-06-14 22:59:00,58.9,51.7,29.28,SSE,158,0.0,0.0,77,0.00,,---,0.00,VWS V14.01,2013-06-15 02:59:00,
2013-06-14 23:00:00,58.9,51.7,29.28,SSE,158,0.0,0.0,77,0.00,,---,0.00,VWS V14.01,2013-06-15 03:00:00,
2013-06-14 23:01:00,58.7,51.5,29.28,SSE,158,0.0,0.0,77,0.00,,---,0.00,VWS V14.01,2013-06-15 03:01:00,
2013-06-14 23:02:00,58.7,51.5,29.28,SSE,158,0.0,0.0,77,0.00,,---,0.00,VWS V14.01,2013-06-15 03:02:00,
2013-06-14 23:03:00,58.7,51.5,29.28,SSE,158,0.0,0.0,77,0.00,,---,0.00,VWS V14.01,2013-06-15 03:03:00,
2013-06-14 23:04:00,58.5,51.3,29.28,SSE,158,0.0,0.0,77,0.00,,---,0.00,VWS V14.01,2013-06-15 03:04:00,
2013-06-14 23:05:00,58.5,51.3,29.28,SSE,158,0.0,0.0,77,0.00,,---,0.00,VWS V14.01,2013-06-15 03:05:00,
2013-06-14 23:06:00,58.3,51.1,29.28,SSE,158,0.2,0.2,77,0.00,,---,0.00,VWS V14.01,2013-06-15 03:06:00,
2013-06-14 23:07:00,58.3,51.1,29.28,SSE,158,0.0,0.2,77,0.00,,---,0.00,VWS V14.01,2013-06-15 03:07:00,
2013-06-14 23:08:00,58.3,51.1,29.28,SSE,158,0.0,0.0,77,0.00,,---,0.00,VWS V14.01,2013-06-15 03:08:00,
2013-06-14 23:09:00,58.3,51.1,29.28,SSE,158,0.0,0.0,77,0.00,,---,0.00,VWS V14.01,2013-06-15 03:09:00,
2013-06-14 23:10:00,58.3,51.1,29.28,SSE,158,0.0,0.0,77,0.00,,---,0.00,VWS V14.01,2013-06-15 03:10:00,
2013-06-14 23:11:00,58.1,51.3,29.28,SSE,158,0.0,0.0,78,0.00,,---,0.00,VWS V14.01,2013-06-15 03:11:00,
2013-06-14 23:12:00,58.1,51.3,29.28,SSE,158,0.0,0.0,78,0.00,,---,0.00,VWS V14.01,2013-06-15 03:12:00,
2013-06-14 23:13:00,58.0,51.2,29.28,SSE,158,0.0,0.0,78,0.00,,---,0.00,VWS V14.01,2013-06-15 03:13:00,
2013-06-14 23:14:00,58.0,51.2,29.29,SSE,158,0.0,0.4,78,0.00,,---,0.00,VWS V14.01,2013-06-15 03:14:00,
2013-06-14 23:15:00,57.8,51.0,29.29,SSE,158,0.0,0.4,78,0.00,,---,0.00,VWS V14.01,2013-06-15 03:15:00,
2013-06-14 23:16:00,57.8,51.0,29.29,SSE,158,0.0,0.0,78,0.00,,---,0.00,VWS V14.01,2013-06-15 03:16:00,
2013-06-14 23:17:00,57.8,51.0,29.29,SSE,158,0.0,0.0,78,0.00,,---,0.00,VWS V14.01,2013-06-15 03:17:00,
2013-06-14 23:18:00,57.8,51.0,29.28,SSE,158,0.0,0.0,78,0.00,,---,0.00,VWS V14.01,2013-06-15 03:18:00,
2013-06-14 23:19:00,57.6,51.1,29.29,SE,135,0.0,0.0,79,0.00,,---,0.00,VWS V14.01,2013-06-15 03:19:00,
2013-06-14 23:20:00,57.6,51.1,29.29,SE,135,0.0,0.0,79,0.00,,---,0.00,VWS V14.01,2013-06-15 03:20:00,
2013-06-14 23:21:00,57.4,51.0,29.29,SE,135,0.4,0.4,79,0.00,,---,0.00,VWS V14.01,2013-06-15 03:21:00,
2013-06-14 23:22:00,57.4,51.0,29.29,SE,135,0.0,0.4,79,0.00,,---,0.00,VWS V14.01,2013-06-15 03:22:00,
2013-06-14 23:23:00,57.2,50.8,29.29,SE,135,0.0,0.0,79,0.00,,---,0.00,VWS V14.01,2013-06-15 03:23:00,
2013-06-14 23:24:00,57.2,50.8,29.29,North,0,0.0,0.0,79,0.00,,---,0.00,VWS V14.01,2013-06-15 03:24:00,
2013-06-14 23:25:00,57.2,50.8,29.29,North,0,0.0,0.0,79,0.00,,---,0.00,VWS V14.01,2013-06-15 03:25:00,
2013-06-14 23:26:00,57.2,50.8,29.28,North,0,0.0,0.2,79,0.00,,---,0.00,VWS V14.01,2013-06-15 03:26:00,
2013-06-14 23:27:00,57.1,50.7,29.29,North,0,0.0,0.0,79,0.00,,---,0.00,VWS V14.01,2013-06-15 03:27:00,
2013-06-14 23:28:00,57.1,50.7,29.28,North,0,0.0,0.0,79,0.00,,---,0.00,VWS V14.01,2013-06-15 03:28:00,
2013-06-14 23:29:00,57.1,51.0,29.29,North,0,0.0,0.0,80,0.00,,---,0.00,VWS V14.01,2013-06-15 03:29:00,
2013-06-14 23:30:00,57.1,50.7,29.29,North,0,0.0,0.0,79,0.00,,---,0.00,VWS V14.01,2013-06-15 03:30:00,
2013-06-14 23:31:00,57.1,51.0,29.28,NW,315,0.4,0.4,80,0.00,,---,0.00,VWS V14.01,2013-06-15 03:31:00,
2013-06-14 23:32:00,57.1,51.0,29.29,NW,315,0.0,0.4,80,0.00,,---,0.00,VWS V14.01,2013-06-15 03:32:00,
2013-06-14 23:33:00,57.1,51.0,29.28,NW,315,0.0,0.0,80,0.00,,---,0.00,VWS V14.01,2013-06-15 03:33:00,
2013-06-14 23:34:00,56.9,50.8,29.29,NW,315,0.0,0.0,80,0.00,,---,0.00,VWS V14.01,2013-06-15 03:34:00,
2013-06-14 23:35:00,56.9,50.8,29.29,NW,315,0.0,0.0,80,0.00,,---,0.00,VWS V14.01,2013-06-15 03:35:00,
2013-06-14 23:36:00,56.9,50.8,29.29,NW,315,0.0,0.0,80,0.00,,---,0.00,VWS V14.01,2013-06-15 03:36:00,
2013-06-14 23:37:00,56.9,50.8,29.29,NW,315,0.0,0.0,80,0.00,,---,0.00,VWS V14.01,2013-06-15 03:37:00,
2013-06-14 23:38:00,56.9,50.8,29.29,West,270,0.0,0.0,80,0.00,,---,0.00,VWS V14.01,2013-06-15 03:38:00,
2013-06-14 23:39:00,56.9,50.8,29.29,West,270,0.0,0.0,80,0.00,,---,0.00,VWS V14.01,2013-06-15 03:39:00,
2013-06-14 23:40:00,56.9,50.8,29.29,West,270,0.0,0.0,80,0.00,,---,0.00,VWS V14.01,2013-06-15 03:40:00,
2013-06-14 23:41:00,56.9,50.8,29.29,West,270,0.0,0.0,80,0.00,,---,0.00,VWS V14.01,2013-06-15 03:41:00,
2013-06-14 23:42:00,56.7,50.6,29.29,West,270,0.0,0.0,80,0.00,,---,0.00,VWS V14.01,2013-06-15 03:42:00,
2013-06-14 23:43:00,56.7,50.6,29.29,West,270,0.0,0.0,80,0.00,,---,0.00,VWS V14.01,2013-06-15 03:43:00,
2013-06-14 23:44:00,56.7,50.6,29.29,West,270,0.0,0.0,80,0.00,,---,0.00,VWS V14.01,2013-06-15 03:44:00,
2013-06-14 23:45:00,56.7,50.6,29.29,West,270,0.0,0.0,80,0.00,,---,0.00,VWS V14.01,2013-06-15 03:45:00,
2013-06-14 23:46:00,56.7,50.6,29.29,West,270,0.0,0.0,80,0.00,,---,0.00,VWS V14.01,2013-06-15 03:46:00,
2013-06-14 23:47:00,56.5,50.4,29.29,West,270,0.0,0.0,80,0.00,,---,0.00,VWS V14.01,2013-06-15 03:47:00,
2013-06-14 23:48:00,56.5,50.4,29.29,West,270,0.0,0.0,80,0.00,,---,0.00,VWS V14.01,2013-06-15 03:48:00,
2013-06-14 23:49:00,56.5,50.4,29.29,West,270,0.0,0.0,80,0.00,,---,0.00,VWS V14.01,2013-06-15 03:49:00,
2013-06-14 23:50:00,56.5,50.4,29.29,West,270,0.0,0.0,80,0.00,,---,0.00,VWS V14.01,2013-06-15 03:50:00,
2013-06-14 23:51:00,56.5,50.4,29.29,West,270,0.0,0.0,80,0.00,,---,0.00,VWS V14.01,2013-06-15 03:51:00,
2013-06-14 23:52:00,56.5,50.4,29.29,West,270,0.0,0.0,80,0.00,,---,0.00,VWS V14.01,2013-06-15 03:52:00,
2013-06-14 23:53:00,56.5,50.4,29.29,West,270,0.0,0.0,80,0.00,,---,0.00,VWS V14.01,2013-06-15 03:53:00,
2013-06-14 23:56:00,55.8,53.2,0.00,WSW,248,0.0,0.0,91,5.11,,---,5.11,VWS V14.01,2013-06-15 03:56:00,
2013-06-14 23:57:00,55.8,53.2,29.17,WSW,248,0.0,0.0,91,5.11,,---,5.11,VWS V14.01,2013-06-15 03:57:00,
2013-06-14 23:58:00,55.8,53.2,29.17,WSW,248,0.0,0.0,91,5.11,,---,5.11,VWS V14.01,2013-06-15 03:58:00,
2013-06-14 23:59:00,55.8,53.2,29.17,WSW,248,0.0,0.0,91,5.11,,---,5.11,VWS V14.01,2013-06-15 03:59:00,